FW1147 Weather Reports


Display with metric or nautical units.
time (UTC)temp
F
wind
direction
speed
MPH
gust
MPH
rain 1hr
in
rain 24hr
in
rain mn
in
humidity
%
barometer
mb
20260507114536 37 257 13.0 19.0 0.00 0.20 0.00 85 1013.1
20260507114022 37 261 15.0 21.0 0.00 0.20 0.00 86 1013.2
20260507113522 37 259 15.0 21.0 0.00 0.20 0.00 86 1013.2
20260507113047 37 255 17.0 23.0 0.00 0.20 0.00 86 1013.4
20260507112522 37 246 17.0 24.0 0.00 0.20 0.00 87 1013.5
20260507112022 37 265 17.0 24.0 0.00 0.20 0.00 87 1013.4
20260507111540 37 261 17.0 21.0 0.00 0.20 0.00 87 1013.4
20260507111022 37 243 15.0 20.0 0.00 0.20 0.00 86 1013.5
20260507110524 37 254 14.0 20.0 0.00 0.20 0.00 85 1013.5
20260507110040 38 245 15.0 20.0 0.00 0.20 0.00 85 1013.5
20260507105522 38 261 16.0 21.0 0.00 0.20 0.00 85 1013.4
20260507105023 37 259 16.0 21.0 0.00 0.20 0.00 86 1013.4
20260507104539 37 265 15.0 21.0 0.00 0.20 0.00 86 1013.5
20260507104021 37 254 16.0 21.0 0.00 0.20 0.00 86 1013.6
20260507103520 37 261 16.0 21.0 0.00 0.20 0.00 86 1013.7
20260507103035 37 259 16.0 24.0 0.00 0.20 0.00 86 1013.6
20260507102519 37 252 17.0 24.0 0.00 0.20 0.00 87 1013.6
20260507102021 37 255 17.0 24.0 0.00 0.20 0.00 87 1013.8
20260507101535 37 240 19.0 24.0 0.00 0.20 0.00 87 1014.0
20260507101021 37 252 17.0 21.0 0.00 0.20 0.00 87 1013.9
20260507100520 37 253 16.0 21.0 0.00 0.20 0.00 87 1014.0
20260507100038 37 252 17.0 21.0 0.00 0.20 0.00 87 1014.1
20260507095520 37 253 17.0 22.0 0.00 0.21 0.00 87 1014.1
20260507095019 37 252 16.0 22.0 0.00 0.21 0.00 88 1014.2
20260507094539 37 248 16.0 22.0 0.00 0.21 0.00 88 1014.4
20260507094022 37 248 16.0 22.0 0.00 0.21 0.00 88 1014.4
20260507093522 37 252 16.0 22.0 0.00 0.21 0.00 88 1014.4
20260507093038 37 250 16.0 22.0 0.00 0.21 0.00 88 1014.6
20260507092520 37 249 16.0 21.0 0.00 0.21 0.00 89 1014.6
20260507092023 37 252 16.0 21.0 0.00 0.21 0.00 89 1014.6
20260507091539 37 249 16.0 21.0 0.00 0.21 0.00 89 1014.7
20260507091023 37 244 15.0 21.0 0.00 0.21 0.00 90 1014.6
20260507090520 37 249 15.0 21.0 0.00 0.21 0.00 90 1014.7
20260507090033 37 237 13.0 18.0 0.00 0.21 0.00 90 1014.7
20260507085520 37 248 14.0 18.0 0.00 0.25 0.00 90 1014.8
20260507085019 37 249 14.0 19.0 0.00 0.25 0.00 90 1014.9
20260507084535 37 248 14.0 19.0 0.00 0.25 0.00 90 1015.0
20260507084020 37 248 13.0 19.0 0.00 0.25 0.00 91 1015.0
20260507083519 37 246 14.0 19.0 0.00 0.25 0.00 91 1015.1
20260507083039 37 244 14.0 18.0 0.00 0.25 0.00 91 1015.1
20260507082518 36 238 13.0 18.0 0.00 0.25 0.00 91 1015.3
20260507082019 36 250 13.0 18.0 0.00 0.25 0.00 91 1015.3
20260507081545 36 232 13.0 18.0 0.00 0.25 0.00 90 1015.4
20260507081023 37 243 13.0 17.0 0.00 0.25 0.00 91 1015.6
20260507080520 36 251 14.0 18.0 0.00 0.25 0.00 91 1015.7
20260507080043 36 257 14.0 18.0 0.00 0.25 0.00 91 1015.7
20260507075521 36 246 14.0 18.0 0.00 0.27 0.00 91 1015.7
20260507075023 36 244 14.0 18.0 0.00 0.27 0.00 91 1015.7
20260507074539 36 251 13.0 18.0 0.00 0.27 0.00 91 1015.8
20260507074026 36 238 14.0 17.0 0.00 0.27 0.00 92 1015.9
20260507073523 35 250 13.0 17.0 0.00 0.27 0.00 92 1016.0
20260507073046 35 246 13.0 17.0 0.00 0.27 0.00 92 1016.0
20260507072522 35 227 12.0 16.0 0.00 0.27 0.00 92 1016.2
20260507072020 35 242 12.0 17.0 0.00 0.27 0.00 92 1016.2
20260507071539 36 241 13.0 18.0 0.00 0.27 0.00 91 1016.2
20260507071021 36 238 14.0 18.0 0.00 0.27 0.00 92 1016.2
20260507070522 36 229 13.0 18.0 0.00 0.27 0.00 92 1016.4
20260507070041 36 246 12.0 16.0 0.00 0.27 0.00 92 1016.6
20260507065521 36 243 11.0 16.0 0.00 0.31 0.00 92 1016.6
20260507065022 36 233 12.0 17.0 0.00 0.31 0.00 92 1016.7
20260507064543 36 234 12.0 17.0 0.00 0.31 0.00 92 1016.7
20260507064022 35 227 12.0 17.0 0.00 0.31 0.00 92 1016.8
20260507063521 35 247 11.0 15.0 0.00 0.31 0.00 92 1016.8
20260507063048 35 247 11.0 16.0 0.00 0.31 0.00 92 1016.9
20260507062526 35 242 12.0 16.0 0.00 0.31 0.00 92 1016.9
20260507062023 35 246 13.0 16.0 0.00 0.31 0.00 92 1016.9
20260507061542 35 248 12.0 15.0 0.00 0.31 0.00 92 1017.0
20260507061024 35 240 10.0 14.0 0.00 0.31 0.00 92 1017.0
20260507060522 35 241 11.0 14.0 0.00 0.31 0.00 92 1017.1
20260507060041 35 244 11.0 14.0 0.00 0.31 0.00 92 1017.2
20260507055522 35 243 10.0 13.0 0.00 0.36 0.31 92 1017.2
20260507055021 35 236 10.0 13.0 0.00 0.36 0.31 92 1017.1
20260507054539 35 244 10.0 13.0 0.00 0.36 0.31 91 1017.2
20260507054022 35 244 10.0 13.0 0.00 0.36 0.31 91 1017.3
20260507053522 36 244 11.0 13.0 0.00 0.36 0.31 92 1017.4
20260507053037 36 245 10.0 13.0 0.00 0.36 0.31 92 1017.4
20260507052522 36 252 10.0 13.0 0.00 0.36 0.31 92 1017.5
20260507052024 36 239 10.0 13.0 0.00 0.36 0.31 92 1017.5
20260507051538 36 243 11.0 13.0 0.00 0.36 0.31 92 1017.5
20260507051024 35 249 10.0 13.0 0.00 0.36 0.31 92 1017.6
20260507050523 35 243 10.0 13.0 0.00 0.36 0.31 92 1017.6
20260507050042 35 246 10.0 13.0 0.00 0.36 0.31 92 1017.8
20260507045524 35 252 9.0 13.0 0.00 0.40 0.31 92 1017.8
20260507045024 35 254 10.0 13.0 0.00 0.40 0.31 92 1017.9
20260507044542 35 245 9.0 11.0 0.00 0.40 0.31 92 1017.8
20260507044023 35 244 8.0 10.0 0.00 0.40 0.31 92 1017.7
20260507043522 35 245 8.0 10.0 0.00 0.40 0.31 92 1017.8
20260507043041 35 232 7.0 10.0 0.00 0.40 0.31 91 1017.8
20260507042523 35 240 7.0 9.0 0.00 0.40 0.31 91 1017.9
20260507042024 35 244 7.0 9.0 0.00 0.40 0.31 91 1017.9
20260507041545 35 240 7.0 9.0 0.00 0.40 0.31 91 1017.9
20260507041023 35 238 7.0 9.0 0.00 0.40 0.31 90 1018.0
20260507040521 36 207 6.0 9.0 0.00 0.40 0.31 90 1017.8
20260507040048 36 227 6.0 10.0 0.00 0.40 0.31 90 1017.9
20260507035520 36 228 6.0 10.0 0.00 0.48 0.31 90 1018.0
20260507035023 37 239 8.0 11.0 0.00 0.48 0.31 90 1018.0
20260507034554 37 242 9.0 11.0 0.00 0.48 0.31 90 1018.0
20260507034024 37 254 9.0 10.0 0.00 0.48 0.31 90 1018.1
20260507033523 37 250 8.0 11.0 0.00 0.48 0.31 90 1018.0
20260507033101 37 254 8.0 11.0 0.00 0.48 0.31 90 1018.1
20260507032523 37 243 9.0 11.0 0.00 0.48 0.31 90 1018.1
20260507032023 37 252 8.0 10.0 0.00 0.48 0.31 90 1018.1
20260507031540 37 250 8.0 9.0 0.00 0.48 0.31 90 1018.1
20260507031022 37 252 8.0 9.0 0.00 0.48 0.31 90 1018.1
20260507030521 37 244 7.0 9.0 0.00 0.48 0.31 89 1018.1
20260507030039 37 239 6.0 8.0 0.00 0.48 0.31 89 1018.2
20260507025522 37 234 6.0 7.0 0.00 0.51 0.31 89 1018.1
20260507025022 37 229 6.0 7.0 0.00 0.51 0.31 89 1018.0
20260507024550 38 226 5.0 7.0 0.00 0.51 0.31 88 1018.0
20260507024020 38 225 5.0 6.0 0.00 0.51 0.31 88 1018.0
20260507023521 38 225 5.0 6.0 0.00 0.51 0.31 88 1017.9
20260507023035 38 223 5.0 6.0 0.00 0.51 0.31 88 1017.9
20260507022522 39 223 5.0 6.0 0.00 0.51 0.31 87 1018.0
20260507022022 39 228 5.0 6.0 0.00 0.51 0.31 87 1018.0
20260507021543 39 227 5.0 6.0 0.00 0.51 0.31 87 1018.0
20260507021025 40 229 4.0 6.0 0.00 0.51 0.31 87 1018.0
20260507020522 40 229 4.0 6.0 0.00 0.51 0.31 86 1018.0
20260507020045 41 229 4.0 6.0 0.00 0.51 0.31 86 1018.1
20260507015521 41 223 4.0 6.0 0.00 0.57 0.31 85 1018.1
20260507015021 41 221 5.0 6.0 0.00 0.57 0.31 85 1018.0
20260507014542 42 220 4.0 6.0 0.00 0.57 0.31 84 1018.0
20260507014023 43 215 4.0 7.0 0.00 0.57 0.31 84 1017.9
20260507013521 43 200 4.0 7.0 0.00 0.57 0.31 84 1017.8
20260507013040 43 211 5.0 7.0 0.00 0.57 0.31 84 1017.9
20260507012522 44 207 4.0 8.0 0.00 0.57 0.31 83 1017.9
20260507012024 44 202 5.0 8.0 0.00 0.57 0.31 83 1017.9
20260507011539 44 207 5.0 8.0 0.00 0.57 0.31 82 1018.0
20260507011021 44 211 6.0 8.0 0.00 0.57 0.31 83 1018.0
20260507010525 44 224 6.0 8.0 0.00 0.57 0.31 82 1017.9
20260507010039 45 225 6.0 7.0 0.00 0.57 0.31 82 1017.9
20260507005522 45 210 4.0 6.0 0.01 0.63 0.31 83 1017.9
20260507005021 45 202 3.0 9.0 0.01 0.63 0.31 83 1018.0
20260507004537 45 234 5.0 10.0 0.01 0.63 0.31 83 1018.0
20260507004023 44 235 7.0 10.0 0.01 0.63 0.31 84 1017.9
20260507003524 44 238 7.0 11.0 0.01 0.63 0.31 82 1018.1
20260507003045 44 248 7.0 12.0 0.01 0.63 0.31 82 1018.0
20260507002522 45 245 9.0 13.0 0.01 0.63 0.31 82 1018.1
20260507002022 45 253 10.0 13.0 0.01 0.63 0.31 84 1018.1
20260507001603 44 261 3.0 7.0 0.01 0.63 0.31 85 1018.1
20260507001022 43 302 0.0 5.0 0.01 0.63 0.31 84 1018.2
20260507000522 44 302 2.0 9.0 0.01 0.63 0.31 84 1018.1
20260507000038 44 328 4.0 9.0 0.01 0.63 0.31 83 1018.2
20260506235523 44 305 3.0 9.0 0.00 0.65 0.30 82 1018.2
20260506235025 44 227 5.0 9.0 0.00 0.65 0.30 80 1018.2
20260506234547 45 265 6.0 9.0 0.00 0.65 0.30 79 1018.2
20260506234022 45 229 3.0 8.0 0.00 0.65 0.30 79 1018.2
20260506233522 45 177 3.0 9.0 0.00 0.65 0.30 79 1018.1
20260506233041 46 207 6.0 10.0 0.00 0.65 0.30 79 1018.2
20260506232521 46 203 5.0 12.0 0.00 0.65 0.30 78 1018.1
20260506232021 46 208 6.0 12.0 0.00 0.65 0.30 79 1018.1
20260506231545 46 143 6.0 11.0 0.00 0.65 0.30 80 1018.1
20260506231022 46 203 5.0 11.0 0.00 0.65 0.30 79 1018.1
20260506230521 46 188 6.0 10.0 0.00 0.65 0.30 81 1018.0
20260506230040 46 180 4.0 10.0 0.00 0.65 0.30 81 1018.0
20260506225522 45 212 6.0 10.0 0.00 0.66 0.30 82 1017.9
20260506225023 45 221 6.0 10.0 0.00 0.66 0.30 83 1018.0
20260506224549 45 219 7.0 10.0 0.00 0.66 0.30 83 1017.9
20260506224024 45 216 7.0 10.0 0.00 0.66 0.30 83 1018.0
20260506223521 45 215 7.0 11.0 0.00 0.66 0.30 83 1018.0
20260506223035 45 224 7.0 13.0 0.00 0.66 0.30 83 1018.1
20260506222522 45 194 8.0 13.0 0.00 0.66 0.30 84 1018.1
20260506222021 45 210 8.0 12.0 0.00 0.66 0.30 83 1018.0
20260506221542 44 193 7.0 12.0 0.00 0.66 0.30 83 1017.9
20260506221022 45 198 8.0 12.0 0.00 0.66 0.30 82 1018.0
20260506220522 45 238 9.0 12.0 0.00 0.66 0.30 82 1018.0
20260506220058 45 203 4.0 9.0 0.00 0.66 0.30 80 1018.1
20260506215523 45 215 1.0 3.0 0.00 0.67 0.30 79 1018.1
20260506215023 45 237 0.0 6.0 0.00 0.67 0.30 80 1018.1
20260506214542 45 335 2.0 6.0 0.00 0.67 0.30 81 1018.1
20260506214023 45 13 3.0 5.0 0.00 0.67 0.30 81 1018.2
20260506213521 45 58 2.0 6.0 0.00 0.67 0.30 82 1018.1
20260506213038 45 15 2.0 7.0 0.00 0.67 0.30 83 1018.3
20260506212525 45 352 3.0 7.0 0.00 0.67 0.30 82 1018.3
20260506212022 45 360 3.0 8.0 0.00 0.67 0.30 83 1018.4
20260506211542 44 22 4.0 9.0 0.00 0.67 0.30 83 1018.3
20260506211022 44 24 4.0 9.0 0.00 0.67 0.30 83 1018.5
20260506210522 45 33 5.0 10.0 0.00 0.67 0.30 83 1018.5
20260506210043 45 55 3.0 10.0 0.00 0.67 0.30 84 1018.5
20260506205522 45 38 4.0 10.0 0.00 0.67 0.30 85 1018.6
20260506205022 45 32 5.0 10.0 0.00 0.67 0.30 83 1018.7
20260506204542 45 30 4.0 9.0 0.00 0.67 0.30 85 1018.7
20260506204022 44 5 1.0 8.0 0.00 0.67 0.30 84 1018.9
20260506203523 44 336 2.0 4.0 0.00 0.67 0.30 83 1018.8
20260506203041 44 30 1.0 4.0 0.00 0.67 0.30 85 1018.8
20260506202523 44 0 0.0 4.0 0.00 0.67 0.30 86 1018.8
20260506202025 44 235 2.0 4.0 0.00 0.67 0.30 84 1018.8
20260506201539 44 269 1.0 5.0 0.00 0.67 0.30 87 1018.9
20260506201022 43 146 1.0 5.0 0.00 0.67 0.30 86 1018.8
20260506200520 43 0 1.0 7.0 0.00 0.67 0.30 86 1018.8
20260506200038 43 163 3.0 9.0 0.00 0.67 0.30 88 1018.8
20260506195522 44 134 4.0 9.0 0.00 0.67 0.30 89 1018.9
20260506195023 43 148 3.0 8.0 0.00 0.67 0.30 89 1018.8
20260506194538 43 111 3.0 8.0 0.00 0.67 0.30 89 1018.8
20260506194025 43 159 4.0 9.0 0.00 0.67 0.30 90 1018.8
20260506193522 43 130 4.0 9.0 0.01 0.67 0.30 90 1018.8
20260506193048 43 126 6.0 10.0 0.01 0.67 0.30 90 1018.7
20260506192521 42 95 5.0 11.0 0.01 0.67 0.30 90 1018.7
20260506192021 42 95 7.0 11.0 0.01 0.67 0.30 90 1018.8
20260506191541 42 120 4.0 10.0 0.01 0.67 0.30 91 1018.8
20260506191021 42 107 6.0 10.0 0.01 0.67 0.30 91 1018.9
20260506190522 42 111 4.0 10.0 0.01 0.67 0.30 91 1019.1
20260506190043 41 146 6.0 10.0 0.01 0.67 0.30 91 1019.1
20260506185521 41 124 4.0 11.0 0.01 0.67 0.30 92 1019.1
20260506185021 41 110 5.0 11.0 0.01 0.67 0.30 92 1019.2
20260506184539 41 134 8.0 11.0 0.01 0.67 0.30 92 1019.2
20260506184023 41 115 7.0 11.0 0.01 0.67 0.30 92 1019.2
20260506183522 41 126 6.0 10.0 0.00 0.66 0.29 92 1019.2
20260506183041 40 71 7.0 10.0 0.00 0.66 0.29 92 1019.4
20260506182521 40 99 6.0 11.0 0.00 0.66 0.29 92 1019.3
20260506182026 40 109 6.0 11.0 0.00 0.66 0.29 92 1019.4
20260506181558 40 78 5.0 13.0 0.00 0.66 0.29 93 1019.5
20260506181022 40 75 8.0 13.0 0.00 0.66 0.29 93 1019.5
20260506180522 40 71 6.0 12.0 0.00 0.66 0.29 93 1019.5
20260506180048 40 84 5.0 9.0 0.00 0.66 0.29 93 1019.5
20260506175525 40 70 5.0 11.0 0.00 0.67 0.29 93 1019.6
20260506175024 40 87 7.0 11.0 0.00 0.67 0.29 93 1019.5
20260506174541 40 87 6.0 10.0 0.00 0.67 0.29 93 1019.4
20260506174021 39 85 7.0 10.0 0.00 0.67 0.29 94 1019.5
20260506173524 39 85 6.0 10.0 0.00 0.67 0.29 94 1019.5
20260506173052 39 66 6.0 10.0 0.00 0.67 0.29 94 1019.4
20260506172524 39 102 6.0 10.0 0.00 0.67 0.29 94 1019.5
20260506172023 39 90 6.0 10.0 0.00 0.67 0.29 94 1019.5
20260506171546 38 82 6.0 9.0 0.00 0.67 0.29 94 1019.5
20260506171021 38 82 6.0 9.0 0.00 0.67 0.29 94 1019.6
20260506170523 38 88 4.0 9.0 0.00 0.67 0.29 94 1019.5
20260506170038 38 67 5.0 9.0 0.00 0.67 0.29 94 1019.5
20260506165523 38 71 4.0 6.0 0.01 0.69 0.29 94 1019.5
20260506165023 38 38 3.0 6.0 0.01 0.69 0.29 94 1019.5
20260506164533 38 46 3.0 6.0 0.01 0.69 0.29 94 1019.5
20260506164021 38 56 3.0 5.0 0.01 0.69 0.29 94 1019.5
20260506163522 38 40 2.0 5.0 0.01 0.69 0.29 95 1019.5
20260506163041 38 22 1.0 5.0 0.02 0.69 0.29 95 1019.5
20260506162521 38 20 3.0 5.0 0.02 0.69 0.29 95 1019.4
20260506162020 38 33 1.0 5.0 0.02 0.69 0.29 95 1019.4
20260506161541 37 50 2.0 5.0 0.03 0.69 0.29 94 1019.4
20260506161021 37 57 2.0 7.0 0.03 0.69 0.29 95 1019.3
20260506160522 37 57 3.0 7.0 0.03 0.69 0.29 95 1019.3
20260506160052 37 62 2.0 5.0 0.04 0.69 0.29 95 1019.3
20260506155523 37 48 2.0 5.0 0.04 0.70 0.28 95 1019.3
20260506155023 37 13 2.0 5.0 0.04 0.70 0.28 95 1019.3
20260506154540 37 25 2.0 5.0 0.05 0.70 0.28 95 1019.2
20260506154023 36 352 3.0 6.0 0.06 0.70 0.28 95 1019.2
20260506153523 36 346 2.0 7.0 0.06 0.70 0.28 95 1019.1
20260506153033 36 11 3.0 7.0 0.06 0.69 0.27 95 1019.2
20260506152522 36 30 2.0 5.0 0.07 0.69 0.27 95 1019.1
20260506152021 36 33 3.0 8.0 0.07 0.69 0.27 95 1018.9
20260506151535 36 5 2.0 8.0 0.07 0.68 0.26 95 1018.7
20260506151022 36 76 5.0 8.0 0.08 0.68 0.26 95 1018.6
20260506150523 36 65 4.0 8.0 0.08 0.68 0.26 95 1018.5
20260506150048 35 53 3.0 6.0 0.08 0.67 0.25 95 1018.4
20260506145520 35 32 2.0 6.0 0.08 0.68 0.24 95 1018.5
20260506145021 35 38 2.0 4.0 0.08 0.68 0.24 95 1018.5
20260506144547 34 352 1.0 4.0 0.08 0.67 0.23 95 1018.6
20260506144023 34 351 2.0 5.0 0.08 0.66 0.22 95 1018.8
20260506143523 34 346 2.0 5.0 0.09 0.66 0.22 94 1018.7
20260506143038 34 352 2.0 4.0 0.08 0.65 0.21 94 1018.7
20260506142523 34 11 2.0 3.0 0.08 0.64 0.20 94 1018.7
20260506142019 34 11 1.0 2.0 0.08 0.64 0.20 94 1018.5
20260506141542 34 11 0.0 2.0 0.07 0.63 0.19 94 1018.5
20260506141022 33 11 0.0 2.0 0.06 0.62 0.18 94 1018.4
20260506140523 33 11 1.0 2.0 0.06 0.62 0.18 94 1018.4
20260506140036 33 11 1.0 2.0 0.05 0.61 0.17 94 1018.2
20260506135522 33 11 0.0 1.0 0.05 0.62 0.16 94 1018.3
20260506135023 33 0 0.0 1.0 0.04 0.61 0.15 94 1018.4
20260506134547 33 0 0.0 0.0 0.04 0.61 0.15 94 1018.4
20260506134020 33 0 0.0 0.0 0.03 0.60 0.14 94 1018.5
20260506133523 33 0 0.0 2.0 0.02 0.58 0.13 94 1018.6
20260506133040 33 0 0.0 2.0 0.01 0.58 0.12 94 1018.5
20260506132537 33 0 0.0 2.0 0.01 0.58 0.12 94 1018.5
20260506132022 33 0 0.0 1.0 0.01 0.58 0.12 94 1018.4
20260506131555 33 0 0.0 2.0 0.01 0.58 0.12 94 1018.2
20260506131023 32 0 0.0 2.0 0.01 0.58 0.12 94 1018.3
20260506130527 32 11 0.0 2.0 0.01 0.58 0.12 94 1018.1
20260506130041 32 0 0.0 1.0 0.01 0.58 0.12 94 1018.1
20260506125520 32 0 0.0 1.0 0.00 0.58 0.11 94 1018.1
20260506125021 32 0 0.0 1.0 0.00 0.58 0.11 94 1017.9
20260506124535 32 0 0.0 2.0 0.00 0.58 0.11 94 1017.7
20260506124024 32 0 0.0 2.0 0.00 0.58 0.11 94 1017.6
20260506123526 32 11 1.0 2.0 0.00 0.58 0.11 94 1017.5
20260506123042 32 11 0.0 2.0 0.00 0.58 0.11 94 1017.5
20260506122524 32 11 0.0 2.0 0.00 0.58 0.11 94 1017.5
20260506122020 32 11 0.0 2.0 0.00 0.58 0.11 94 1017.5
20260506121541 32 15 0.0 2.0 0.00 0.58 0.11 94 1017.4
20260506121025 32 0 0.0 2.0 0.00 0.58 0.11 94 1017.3
20260506120525 32 15 0.0 2.0 0.00 0.58 0.11 94 1017.2
20260506120039 32 15 0.0 2.0 0.00 0.58 0.11 94 1017.2
20260506115522 32 15 0.0 2.0 0.00 0.58 0.11 93 1017.1
20260506115022 32 0 0.0 2.0 0.00 0.58 0.11 93 1017.1